This is the latest recevied weather packets stored in our database for station/object K5GTX. If no packets are shown the sender has not sent any weather packets the latest 1 day(s).
| Time | Temp. | Humidity | Pressure | Rain* | Wind** | Luminosity | Snow |
|---|---|---|---|---|---|---|---|
| 1778025440 | 26.67° C | 99% | 1011 hPa | 0 mm | 0.89 m/s, 26° | 53 W/m² | - |
| 1778025139 | 26.67° C | 99% | 1010.7 hPa | 0 mm | 0.45 m/s, 90° | 32 W/m² | - |
| 1778024835 | 27.22° C | 99% | 1010.8 hPa | 0 mm | 0.89 m/s, 110° | 24 W/m² | - |
| 1778024532 | 27.22° C | 99% | 1011 hPa | 0 mm | 2.24 m/s, 19° | 32 W/m² | - |
| 1778024228 | 27.78° C | 99% | 1010.8 hPa | 0 mm | 1.79 m/s, 8° | 54 W/m² | - |
| 1778023926 | 28.33° C | 99% | 1011 hPa | 0 mm | 3.13 m/s, 51° | 32 W/m² | - |
| 1778023624 | 28.89° C | 99% | 1010.7 hPa | 0 mm | 1.34 m/s, 70° | 54 W/m² | - |
| 1778023321 | 29.44° C | 99% | 1010.6 hPa | 0 mm | 0.89 m/s, 228° | 67 W/m² | - |
| 1778023017 | 29.44° C | 99% | 1010.4 hPa | 0 mm | 1.34 m/s, 293° | 93 W/m² | - |
| 1778022717 | 30° C | 99% | 1010.3 hPa | 0 mm | 0.45 m/s, 325° | 73 W/m² | - |
| 1778022414 | 30° C | 99% | 1010.3 hPa | 0 mm | 1.34 m/s, 331° | 109 W/m² | - |
| 1778022111 | 30° C | 99% | 1010.2 hPa | 0 mm | 0.45 m/s, 331° | 103 W/m² | - |
| 1778021807 | 31.11° C | 99% | 1009.9 hPa | 0 mm | 2.24 m/s, 344° | 135 W/m² | - |
| 1778021503 | 31.67° C | 99% | 1009.8 hPa | 0 mm | 1.34 m/s, 262° | 246 W/m² | - |
| 1778021199 | 31.67° C | 99% | 1009.9 hPa | 0 mm | 1.34 m/s, 274° | 133 W/m² | - |
| 1778020898 | 31.67° C | 99% | 1009.9 hPa | 0 mm | 0.45 m/s, 200° | 127 W/m² | - |
| 1778020595 | 31.67° C | 99% | 1009.7 hPa | 0 mm | 0.89 m/s, 208° | 148 W/m² | - |
| 1778020290 | 31.67° C | 99% | 1009.5 hPa | 0 mm | 1.34 m/s, 255° | 146 W/m² | - |
| 1778019987 | 32.22° C | 99% | 1009.6 hPa | 0 mm | 0.89 m/s, 162° | 135 W/m² | - |
| 1778019683 | 31.67° C | 99% | 1009.5 hPa | 0 mm | 0 m/s | 142 W/m² | - |
| 1778019380 | 32.22° C | 99% | 1009.4 hPa | 0 mm | 0 m/s | 182 W/m² | - |
| 1778019077 | 32.22° C | 99% | 1009.3 hPa | 0 mm | 0 m/s | 154 W/m² | - |
| 1778018774 | 32.22° C | 99% | 1009.5 hPa | 0 mm | 0.89 m/s, 270° | 146 W/m² | - |
| 1778018472 | 32.22° C | 99% | 1009.6 hPa | 0 mm | 0 m/s | 275 W/m² | - |
| 1778018169 | 32.78° C | 99% | 1009.7 hPa | 0 mm | 0 m/s | 174 W/m² | - |
* Rain latest hour (hover to see other rain measurements)
** Current wind speed in m/s (hover to see current wind gust speed)